Voltar ao catálogo

STARLINK-34239

AtivoComunicaçõesVLEO
NORAD 64728·PAYLOAD·🇺🇸 United States

Lançado Jul 2, 2025 de Cape Canaveral Space Force Station

Loading…

Próximas Passagens (próximas 24 horas)

TLE

AtualizadoSource: CelesTrak SupGP

Época: Sep 15, 2026, 03:48 UTC

1 64728C 25144E   26258.15881944  .00060867  00000+0  17972-2 0  2588
2 64728  53.1599  18.5335 0001369  80.1187 324.6479 15.34379599    11

Acompanhe STARLINK-34239 em tempo real com AllMySat

Download on the App Store